Pinedale, WY

8:48 AM MDT on October 21, 2017 (GMT -0600)
Wenz

Weather History for KPNA - October, 2012

Change the Weather History Date:

Wednesday, October 31, 2012

  Actual Average (KBPI) Record (KBPI)
Temperature  
Mean Temperature 42 °F -  
Max Temperature 60 °F 42 °F 63 °F (2014)
Min Temperature 23 °F 14 °F -10 °F (1991)
Degree Days  
Heating Degree Days 24    
Moisture  
Dew Point 27 °F    
Average Humidity 71    
Maximum Humidity 100    
Minimum Humidity 23    
Precipitation  
Precipitation 0.00 in - - ()
Sea Level Pressure  
Sea Level Pressure 30.25 in    
Wind  
Wind Speed 5 mph (WNW)    
Max Wind Speed 12 mph    
Max Gust Speed -    
Visibility 10 miles    
Events      
Averages and records for this station are not official NWS values.
T = Trace of Precipitation, MM = Missing Value Source: NWS Daily Summary

Daily Weather History Graph

Daily Weather History Graph

Search for Another Location

Airport or City:

Trip Planner

Search our weather history database for the weather conditions in past years. The results will help you decide how hot, cold, wet, or windy it might be!

Date:

Astronomy

Oct. 31, 2012 Rise Set
Actual Time 7:52 AM MDT 6:12 PM MDT
Civil Twilight 7:23 AM MDT 6:41 PM MDT
Nautical Twilight 6:50 AM MDT 7:14 PM MDT
Astronomical Twilight 6:17 AM MDT 7:47 PM MDT
Moon 7:23 PM MDT (10/31) 9:39 AM MDT (10/31)
Length of Visible Light 11h 18m
Length of Day
10h 19m
Full, 97% of the Moon is Illuminated
Oct 31
Full
Nov 6
Last Quarter
Nov 13
New
Nov 20
First Quarter
Nov 28
Full

Hourly Weather History & Observations

Time (MDT) Temp. Windchill Dew Point Humidity Pressure Visibility Wind Dir Wind Speed Gust Speed Precip Events Conditions
12:15 AM 28.4 °F 23.3 °F 26.6 °F 93% 30.27 in 10.0 mi West 4.6 mph - N/A   Scattered Clouds
12:55 AM 28.4 °F 22.2 °F 26.6 °F 93% 30.27 in 10.0 mi West 5.8 mph - N/A   Clear
1:15 AM 28.4 °F 22.2 °F 26.6 °F 93% 30.27 in 10.0 mi NW 5.8 mph - N/A   Scattered Clouds
1:35 AM 26.6 °F 21.2 °F 26.6 °F 100% 30.28 in 10.0 mi WNW 4.6 mph - N/A   Mostly Cloudy
1:55 AM 26.6 °F 18.2 °F 26.6 °F 100% 30.29 in 10.0 mi NW 8.1 mph - N/A   Mostly Cloudy
2:15 AM 24.8 °F 19.1 °F 24.8 °F 100% 30.29 in 10.0 mi WNW 4.6 mph - N/A   Mostly Cloudy
2:35 AM 26.6 °F 21.2 °F 24.8 °F 93% 30.29 in 10.0 mi WNW 4.6 mph - N/A   Scattered Clouds
2:55 AM 26.6 °F 20.0 °F 24.8 °F 93% 30.29 in 10.0 mi WNW 5.8 mph - N/A   Scattered Clouds
3:15 AM 24.8 °F 19.1 °F 24.8 °F 100% 30.29 in 10.0 mi West 4.6 mph - N/A   Clear
3:35 AM 24.8 °F 17.9 °F 24.8 °F 100% 30.29 in 10.0 mi NW 5.8 mph - N/A   Clear
3:55 AM 24.8 °F 16.9 °F 23.0 °F 93% 30.29 in 10.0 mi WNW 6.9 mph - N/A   Clear
4:15 AM 26.6 °F 21.2 °F 24.8 °F 93% 30.28 in 10.0 mi WNW 4.6 mph - N/A   Mostly Cloudy
4:35 AM 24.8 °F 16.9 °F 23.0 °F 93% 30.28 in 10.0 mi WNW 6.9 mph - N/A   Mostly Cloudy
4:55 AM 24.8 °F 16.9 °F 23.0 °F 93% 30.27 in 10.0 mi West 6.9 mph - N/A   Scattered Clouds
5:15 AM 24.8 °F 16.1 °F 23.0 °F 93% 30.27 in 10.0 mi WNW 8.1 mph - N/A   Clear
5:35 AM 24.8 °F 17.9 °F 23.0 °F 93% 30.27 in 10.0 mi WNW 5.8 mph - N/A   Scattered Clouds
5:55 AM 23.0 °F 14.7 °F 23.0 °F 100% 30.28 in 10.0 mi WNW 6.9 mph - N/A   Mostly Cloudy
6:15 AM 24.8 °F 16.9 °F 23.0 °F 93% 30.29 in 10.0 mi WNW 6.9 mph - N/A   Mostly Cloudy
6:35 AM 23.0 °F 15.8 °F 23.0 °F 100% 30.29 in 10.0 mi WNW 5.8 mph - N/A   Scattered Clouds
6:55 AM 23.0 °F 13.9 °F 23.0 °F 100% 30.29 in 10.0 mi West 8.1 mph - N/A   Clear
7:15 AM 23.0 °F 13.9 °F 23.0 °F 100% 30.29 in 10.0 mi West 8.1 mph - N/A   Clear
7:35 AM 23.0 °F 14.7 °F 23.0 °F 100% 30.29 in 10.0 mi WNW 6.9 mph - N/A   Clear
7:55 AM 23.0 °F 14.7 °F 23.0 °F 100% 30.29 in 10.0 mi WNW 6.9 mph - N/A   Clear
8:15 AM 24.8 °F 17.9 °F 23.0 °F 93% 30.29 in 10.0 mi West 5.8 mph - N/A   Clear
8:35 AM 26.6 °F 19.1 °F 24.8 °F 93% 30.29 in 10.0 mi WNW 6.9 mph - N/A   Clear
8:55 AM 28.4 °F 23.3 °F 26.6 °F 93% 30.30 in 10.0 mi WNW 4.6 mph - N/A   Clear
9:15 AM 32.0 °F 27.5 °F 28.4 °F 87% 30.30 in 10.0 mi WNW 4.6 mph - N/A   Clear
9:55 AM 33.8 °F 27.7 °F 30.2 °F 87% 30.31 in 10.0 mi WNW 6.9 mph - N/A   Clear
10:15 AM 37.4 °F 32.1 °F 30.2 °F 75% 30.31 in 10.0 mi WNW 6.9 mph - N/A   Clear
10:35 AM 41.0 °F 37.1 °F 32.0 °F 70% 30.30 in 10.0 mi WNW 5.8 mph - N/A   Clear
10:55 AM 42.8 °F 41.1 °F 32.0 °F 66% 30.29 in 10.0 mi WNW 3.5 mph - N/A   Clear
11:15 AM 46.4 °F 45.2 °F 32.0 °F 57% 30.29 in 10.0 mi NW 3.5 mph - N/A   Clear
11:35 AM 50.0 °F - 30.2 °F 47% 30.29 in 10.0 mi Calm Calm - N/A   Clear
11:55 AM 51.8 °F - 28.4 °F 41% 30.29 in 10.0 mi Calm Calm - N/A   Clear
12:15 PM 53.6 °F - 28.4 °F 38% 30.27 in 10.0 mi Calm Calm - N/A   Clear
12:35 PM 55.4 °F - 23.0 °F 29% 30.27 in 10.0 mi Calm Calm - N/A   Clear
12:55 PM 55.4 °F - 23.0 °F 29% 30.26 in 10.0 mi Calm Calm - N/A   Clear
1:15 PM 59.0 °F - 23.0 °F 25% 30.25 in 10.0 mi NNE 5.8 mph - N/A   Clear
1:35 PM 59.0 °F - 23.0 °F 25% 30.24 in 10.0 mi Calm Calm - N/A   Clear
1:55 PM 59.0 °F - 24.8 °F 27% 30.23 in 10.0 mi Calm Calm - N/A   Clear
2:35 PM 59.0 °F - 24.8 °F 27% 30.22 in 10.0 mi Calm Calm - N/A   Clear
2:55 PM 60.8 °F - 23.0 °F 23% 30.21 in 10.0 mi South 9.2 mph - N/A   Clear
3:15 PM 60.8 °F - 26.6 °F 27% 30.20 in 10.0 mi SSE 11.5 mph - N/A   Clear
3:35 PM 59.0 °F - 26.6 °F 29% 30.21 in 10.0 mi South 9.2 mph - N/A   Clear
3:55 PM 59.0 °F - 26.6 °F 29% 30.21 in 10.0 mi SSE 11.5 mph - N/A   Clear
4:15 PM 59.0 °F - 26.6 °F 29% 30.21 in 10.0 mi SSE 8.1 mph - N/A   Scattered Clouds
4:35 PM 59.0 °F - 28.4 °F 31% 30.21 in 10.0 mi SSE 6.9 mph - N/A   Scattered Clouds
4:55 PM 59.0 °F - 28.4 °F 31% 30.20 in 10.0 mi SE 10.4 mph - N/A   Clear
5:15 PM 57.2 °F - 28.4 °F 33% 30.20 in 10.0 mi SE 5.8 mph - N/A   Scattered Clouds
5:35 PM 53.6 °F - 30.2 °F 41% 30.20 in 10.0 mi SE 6.9 mph - N/A   Mostly Cloudy
6:15 PM 46.4 °F 43.5 °F 30.2 °F 53% 30.20 in 10.0 mi ESE 5.8 mph - N/A   Scattered Clouds
6:35 PM 46.4 °F 44.3 °F 30.2 °F 53% 30.20 in 10.0 mi ESE 4.6 mph - N/A   Clear
6:55 PM 44.6 °F 41.4 °F 30.2 °F 57% 30.20 in 10.0 mi ESE 5.8 mph - N/A   Clear
7:15 PM 44.6 °F 41.4 °F 30.2 °F 57% 30.21 in 10.0 mi East 5.8 mph - N/A   Clear
7:35 PM 41.0 °F - 30.2 °F 65% 30.21 in 10.0 mi Calm Calm - N/A   Clear
7:55 PM 42.8 °F - 30.2 °F 61% 30.21 in 10.0 mi Calm Calm - N/A   Clear
8:15 PM 39.2 °F - 30.2 °F 70% 30.20 in 10.0 mi Calm Calm - N/A   Clear
8:35 PM 35.6 °F - 30.2 °F 81% 30.20 in 10.0 mi Calm Calm - N/A   Clear
8:55 PM 35.6 °F - 30.2 °F 81% 30.20 in 10.0 mi Calm Calm - N/A   Clear
9:15 PM 35.6 °F - 30.2 °F 81% 30.19 in 10.0 mi Calm Calm - N/A   Clear
9:35 PM 33.8 °F - 28.4 °F 81% 30.19 in 10.0 mi Calm Calm - N/A   Scattered Clouds
9:55 PM 32.0 °F - 28.4 °F 87% 30.19 in 10.0 mi Calm Calm - N/A   Overcast
10:15 PM 32.0 °F - 30.2 °F 93% 30.19 in 10.0 mi Calm Calm - N/A   Scattered Clouds
10:35 PM 32.0 °F 28.7 °F 30.2 °F 93% 30.19 in 10.0 mi WNW 3.5 mph - N/A   Clear
10:55 PM 32.0 °F 28.7 °F 30.2 °F 93% 30.18 in 10.0 mi West 3.5 mph - N/A   Clear
11:15 PM 32.0 °F 27.5 °F 30.2 °F 93% 30.18 in 10.0 mi West 4.6 mph - N/A   Clear
11:35 PM 32.0 °F 27.5 °F 30.2 °F 93% 30.17 in 10.0 mi WNW 4.6 mph - N/A   Mostly Cloudy